Location: East Horndon
(51.5667°N, 0.3500°E)
Time: 09:20:44
(UTC+00:00)

SL-08 R/B - Pass Details

Date: 08 November 2025
Orbit: 943 x 1007 km, 82.9° (Epoch: 11 December)

Event Time Altitude Azimuth Distance (km) Brightness Sun altitude
Rises 05:16:23 0° 348° (NNW) 3,624 7.3 -17.0°
Reaches altitude 10° 05:18:53 10° 347° (NNW) 2,678 6.6 -16.6°
Maximum altitude 05:24:57 71° 264° (W) 1,006 4.4 -15.6°
Drops below altitude 10° 05:31:03 10° 182° (S) 2,689 6.9 -14.7°
Sets 05:33:34 0° 180° (S) 3,640 7.6 -14.3°
